• In Hungary
  • List of Countries
  • For 7 days
  • Water Temperature
  • Satellite Maps
  • Weather Map
  • News
  • Weather Widgets
  • user-avatar
    Login

    Hourly Weather Afna

    Today, 23 July, Monday

    Time Temperature Precipitation Wind Pressure Humidity
    00:00 +20°C° 0 mm 1 mps 668 mmHg 73%
    01:00 +20°C° 0 mm 1 mps 668 mmHg 73%
    02:00 +19°C° 0 mm 1 mps 668 mmHg 73%
    03:00 +18°C° 0 mm 2 mps 667 mmHg 73%
    04:00 +20°C° 0 mm 1 mps 668 mmHg 72%
    05:00 +21°C° 0 mm 1 mps 668 mmHg 70%
    06:00 +21°C° 0 mm 1 mps 668 mmHg 68%
    07:00 +23°C° 0 mm 1 mps 668 mmHg 64%
    08:00 +24°C° 0 mm 2 mps 669 mmHg 60%
    09:00 +25°C° 0 mm 2 mps 669 mmHg 59%
    10:00 +25°C° 0.1 mm 3 mps 669 mmHg 57%
    11:00 +26°C° 0.1 mm 3 mps 669 mmHg 56%
    12:00 +26°C° 0.1 mm 3 mps 669 mmHg 55%
    13:00 +26°C° 0.1 mm 3 mps 668 mmHg 55%
    14:00 +26°C° 0.1 mm 3 mps 668 mmHg 55%
    15:00 +27°C° 0.1 mm 3 mps 668 mmHg 56%
    16:00 +26°C° 0.1 mm 3 mps 667 mmHg 60%
    17:00 +25°C° 0.1 mm 2 mps 667 mmHg 64%
    18:00 +24°C° 0.1 mm 2 mps 667 mmHg 68%
    19:00 +23°C° 0.1 mm 1 mps 667 mmHg 72%
    20:00 +22°C° 0.1 mm 1 mps 667 mmHg 77%
    21:00 +20°C° 0.1 mm 1 mps 667 mmHg 81%
    22:00 +20°C° 0.1 mm 1 mps 667 mmHg 79%
    23:00 +20°C° 0.1 mm 1 mps 667 mmHg 77%

    Tomorrow, 24 July, Tuesday

    Time Temperature Precipitation Wind Pressure Humidity
    00:00 +20°C° 0.1 mm 1 mps 667 mmHg 75%
    01:00 +20°C° 0 mm 1 mps 667 mmHg 74%
    02:00 +20°C° 0 mm 1 mps 667 mmHg 73%
    03:00 +20°C° 0 mm 1 mps 667 mmHg 72%
    04:00 +20°C° 0 mm 2 mps 667 mmHg 71%
    05:00 +20°C° 0 mm 2 mps 667 mmHg 69%
    06:00 +21°C° 0 mm 2 mps 667 mmHg 67%
    07:00 +24°C° 0 mm 2 mps 668 mmHg 64%
    08:00 +25°C° 0 mm 2 mps 668 mmHg 61%
    09:00 +26°C° 0 mm 2 mps 669 mmHg 58%
    10:00 +27°C° 0 mm 3 mps 669 mmHg 57%
    11:00 +28°C° 0 mm 3 mps 669 mmHg 57%
    12:00 +28°C° 0 mm 3 mps 669 mmHg 56%
    13:00 +28°C° 0 mm 3 mps 669 mmHg 56%
    14:00 +29°C° 0 mm 3 mps 668 mmHg 56%
    15:00 +29°C° 0 mm 3 mps 668 mmHg 56%
    16:00 +28°C° 0 mm 3 mps 668 mmHg 59%
    17:00 +27°C° 0 mm 2 mps 668 mmHg 63%
    18:00 +26°C° 0 mm 2 mps 668 mmHg 66%
    19:00 +25°C° 0 mm 2 mps 668 mmHg 67%
    20:00 +23°C° 0 mm 1 mps 668 mmHg 67%
    21:00 +22°C° 0 mm 1 mps 668 mmHg 68%
    22:00 +22°C° 0 mm 1 mps 668 mmHg 62%
    23:00 +21°C° 0 mm 2 mps 668 mmHg 57%

    Day after tomorrow, 25 July, Wednesday

    Time Temperature Precipitation Wind Pressure Humidity
    00:00 +21°C° 0 mm 2 mps 668 mmHg 52%
    01:00 +21°C° 0 mm 2 mps 668 mmHg 49%
    02:00 +21°C° 0 mm 2 mps 668 mmHg 46%
    03:00 +21°C° 0 mm 2 mps 668 mmHg 43%
    04:00 +21°C° 0 mm 2 mps 668 mmHg 45%
    05:00 +23°C° 0 mm 2 mps 668 mmHg 46%
    06:00 +24°C° 0 mm 2 mps 668 mmHg 47%
    07:00 +26°C° 0 mm 2 mps 669 mmHg 43%
    08:00 +29°C° 0 mm 2 mps 669 mmHg 39%
    09:00 +31°C° 0 mm 2 mps 669 mmHg 35%
    10:00 +32°C° 0 mm 2 mps 669 mmHg 35%
    11:00 +34°C° 0 mm 3 mps 669 mmHg 35%
    12:00 +35°C° 0 mm 3 mps 669 mmHg 35%
    13:00 +35°C° 0 mm 3 mps 669 mmHg 36%
    14:00 +35°C° 0 mm 3 mps 669 mmHg 37%
    15:00 +35°C° 0 mm 4 mps 669 mmHg 38%
    16:00 +33°C° 0 mm 3 mps 668 mmHg 43%
    17:00 +31°C° 0 mm 3 mps 668 mmHg 48%
    18:00 +30°C° 0 mm 3 mps 668 mmHg 53%
    19:00 +28°C° 0 mm 2 mps 668 mmHg 54%
    20:00 +27°C° 0 mm 2 mps 668 mmHg 55%
    21:00 +25°C° 0 mm 2 mps 668 mmHg 56%
    22:00 +25°C° 0 mm 2 mps 668 mmHg 53%
    23:00 +25°C° 0 mm 2 mps 668 mmHg 50%

    26 July, Thursday

    Time Temperature Precipitation Wind Pressure Humidity
    00:00 +25°C° 0 mm 2 mps 668 mmHg 48%
    01:00 +25°C° 0 mm 2 mps 668 mmHg 46%
    02:00 +25°C° 0 mm 2 mps 668 mmHg 45%
    03:00 +25°C° 0 mm 2 mps 668 mmHg 43%
    04:00 +25°C° 0 mm 2 mps 668 mmHg 45%
    05:00 +26°C° 0 mm 2 mps 668 mmHg 46%
    06:00 +26°C° 0 mm 2 mps 668 mmHg 48%
    07:00 +28°C° 0 mm 2 mps 669 mmHg 44%
    08:00 +30°C° 0 mm 3 mps 669 mmHg 41%
    09:00 +33°C° 0 mm 3 mps 670 mmHg 37%
    10:00 +34°C° 0 mm 4 mps 670 mmHg 36%
    11:00 +35°C° 0 mm 5 mps 670 mmHg 35%
    12:00 +36°C° 0 mm 5 mps 670 mmHg 34%
    13:00 +36°C° 0 mm 5 mps 670 mmHg 34%
    14:00 +35°C° 0 mm 5 mps 670 mmHg 35%
    15:00 +35°C° 0 mm 6 mps 670 mmHg 35%
    16:00 +34°C° 0 mm 5 mps 670 mmHg 38%
    17:00 +32°C° 0 mm 4 mps 669 mmHg 42%
    18:00 +30°C° 0 mm 3 mps 669 mmHg 45%
    19:00 +28°C° 0 mm 3 mps 669 mmHg 47%
    20:00 +27°C° 0 mm 2 mps 669 mmHg 48%
    21:00 +25°C° 0 mm 2 mps 669 mmHg 49%
    22:00 +25°C° 0 mm 2 mps 669 mmHg 50%
    23:00 +25°C° 0 mm 1 mps 669 mmHg 50%

    27 July, Friday

    Time Temperature Precipitation Wind Pressure Humidity
    00:00 +24°C° 0 mm 1 mps 669 mmHg 50%
    01:00 +24°C° 0 mm 1 mps 669 mmHg 50%
    02:00 +24°C° 0 mm 1 mps 669 mmHg 50%
    03:00 +24°C° 0 mm 1 mps 669 mmHg 50%
    04:00 +24°C° 0 mm 1 mps 669 mmHg 50%
    05:00 +25°C° 0 mm 2 mps 669 mmHg 51%
    06:00 +25°C° 0 mm 2 mps 670 mmHg 51%
    07:00 +27°C° 0 mm 3 mps 670 mmHg 45%
    08:00 +29°C° 0 mm 4 mps 671 mmHg 40%
    09:00 +32°C° 0 mm 4 mps 671 mmHg 35%
    10:00 +32°C° 0 mm 5 mps 671 mmHg 33%
    11:00 +33°C° 0 mm 5 mps 671 mmHg 32%
    12:00 +34°C° 0 mm 6 mps 671 mmHg 30%
    13:00 +34°C° 0 mm 6 mps 671 mmHg 30%
    14:00 +33°C° 0 mm 5 mps 670 mmHg 30%
    15:00 +33°C° 0 mm 5 mps 670 mmHg 30%
    16:00 +32°C° 0 mm 5 mps 670 mmHg 34%
    17:00 +29°C° 0 mm 4 mps 670 mmHg 38%
    18:00 +28°C° 0 mm 3 mps 669 mmHg 42%
    19:00 +26°C° 0 mm 3 mps 669 mmHg 44%
    20:00 +25°C° 0 mm 2 mps 669 mmHg 46%
    21:00 +23°C° 0 mm 2 mps 669 mmHg 48%
    22:00 +23°C° 0 mm 2 mps 669 mmHg 47%
    23:00 +23°C° 0 mm 2 mps 669 mmHg 46%

    28 July, Saturday

    Time Temperature Precipitation Wind Pressure Humidity
    00:00 +21°C° 0 mm 2 mps 669 mmHg 45%
    01:00 +23°C° 0 mm 2 mps 668 mmHg 43%
    02:00 +23°C° 0 mm 2 mps 668 mmHg 41%
    03:00 +23°C° 0 mm 2 mps 668 mmHg 40%
    04:00 +24°C° 0 mm 2 mps 668 mmHg 41%
    05:00 +24°C° 0 mm 2 mps 668 mmHg 42%
    06:00 +24°C° 0 mm 2 mps 669 mmHg 43%
    07:00 +27°C° 0 mm 2 mps 669 mmHg 39%
    08:00 +29°C° 0 mm 2 mps 669 mmHg 34%
    09:00 +31°C° 0 mm 3 mps 670 mmHg 30%
    10:00 +33°C° 0 mm 3 mps 670 mmHg 29%
    11:00 +33°C° 0 mm 4 mps 670 mmHg 29%
    12:00 +34°C° 0 mm 5 mps 670 mmHg 28%
    13:00 +34°C° 0 mm 5 mps 670 mmHg 28%
    14:00 +34°C° 0 mm 5 mps 669 mmHg 28%
    15:00 +34°C° 0 mm 5 mps 669 mmHg 28%
    16:00 +33°C° 0 mm 4 mps 669 mmHg 31%
    17:00 +30°C° 0 mm 3 mps 669 mmHg 35%
    18:00 +29°C° 0 mm 3 mps 669 mmHg 38%
    19:00 +27°C° 0 mm 3 mps 668 mmHg 39%
    20:00 +25°C° 0 mm 2 mps 668 mmHg 40%
    21:00 +23°C° 0 mm 2 mps 668 mmHg 41%
    22:00 +23°C° 0 mm 2 mps 668 mmHg 39%
    23:00 +23°C° 0 mm 2 mps 668 mmHg 38%
    Show more